Starlink 11373

operational
NORAD ID: 61582 Int'l Des: 2024-187 Owner: SPXS Country: US Constellation: starlink
LEOCIRCULAR

Über Starlink 11373

Beschreibung wird geladen...

Live-Position

3D-Globus wird geladen...

Nächste Überflüge

Höhenverlauf

Altitude vs Time

uPlot chart will show altitude changes over time

Zweizeiliger Elementsatz

1 61582U 24187J 25306.01672998 .00001193 00000-0 14709-4 0 9991
2 61582 53.1611 205.9404 0001630 91.2396 268.8808 15.69716494 60698
Epoch: 2. Nov. 2025 • Age: 36 hours

Aktueller Status

Höhe 377.2 km
Geschwindigkeit 7.68 km/s
Subsatellitenpunkt -48.14°S, 92.59°W
Startdatum 18. Okt. 2024
Alter 1 years
Typ internet

Technische Details

Klassifizierung Payload
Masse 960.00 kg
Trockenmasse 910.00 kg
Gesamtmasse 960.00 kg
Länge 0.30 m
Durchmesser 4.10 m
Spannweite 29.00 m
Form Box + pan
Hersteller SPXS
Bus-Typ Starlink V2MD
Phasenstatus In Orbit
Besitzer/Staat SPXS/US

Große Konstellationen

Loading constellations...